Year,Month,Day,Hour,Minute,Value (Times are PST for temperature in C)
2021,08,12,00,00,18.90
2021,08,12,00,01,18.90
2021,08,12,00,02,18.90
2021,08,12,00,03,18.90
2021,08,12,00,04,18.90
2021,08,12,00,05,18.90
2021,08,12,00,06,18.80
2021,08,12,00,07,18.80
2021,08,12,00,08,18.80
2021,08,12,00,09,18.80
2021,08,12,00,10,18.80
2021,08,12,00,11,18.80
2021,08,12,00,12,18.80
2021,08,12,00,13,18.80
2021,08,12,00,14,18.80
2021,08,12,00,15,18.80
2021,08,12,00,16,18.80
2021,08,12,00,17,18.80
2021,08,12,00,18,18.80
2021,08,12,00,19,18.80
2021,08,12,00,20,18.80
2021,08,12,00,21,18.80
2021,08,12,00,22,18.80
2021,08,12,00,23,18.80
2021,08,12,00,24,18.80
2021,08,12,00,25,18.80
2021,08,12,00,26,18.80
2021,08,12,00,27,18.80
2021,08,12,00,28,18.80
2021,08,12,00,29,18.80
2021,08,12,00,30,18.70
2021,08,12,00,31,18.70
2021,08,12,00,32,18.70
2021,08,12,00,33,18.70
2021,08,12,00,34,18.70
2021,08,12,00,35,18.70
2021,08,12,00,36,18.70
2021,08,12,00,37,18.70
2021,08,12,00,38,18.70
2021,08,12,00,39,18.70
2021,08,12,00,40,18.70
2021,08,12,00,41,18.70
2021,08,12,00,42,18.70
2021,08,12,00,43,18.70
2021,08,12,00,44,18.70
2021,08,12,00,45,18.70
2021,08,12,00,46,18.60
2021,08,12,00,47,18.60
2021,08,12,00,48,18.60
2021,08,12,00,49,18.60
2021,08,12,00,50,18.60
2021,08,12,00,51,18.60
2021,08,12,00,52,18.60
2021,08,12,00,53,18.60
2021,08,12,00,54,18.50
2021,08,12,00,55,18.50
2021,08,12,00,56,18.50
2021,08,12,00,57,18.50
2021,08,12,00,58,18.50
2021,08,12,00,59,18.50
2021,08,12,01,00,18.40
2021,08,12,01,01,18.40
2021,08,12,01,02,18.40
2021,08,12,01,03,18.40
2021,08,12,01,04,18.40
2021,08,12,01,05,18.40
2021,08,12,01,06,18.40
2021,08,12,01,07,18.40
2021,08,12,01,08,18.40
2021,08,12,01,09,18.40
2021,08,12,01,10,18.40
2021,08,12,01,11,18.40
2021,08,12,01,12,18.40
2021,08,12,01,13,18.40
2021,08,12,01,14,18.40
2021,08,12,01,15,18.40
2021,08,12,01,16,18.40
2021,08,12,01,17,18.40
2021,08,12,01,18,18.40
2021,08,12,01,19,18.30
2021,08,12,01,20,18.30
2021,08,12,01,21,18.30
2021,08,12,01,22,18.30
2021,08,12,01,23,18.30
2021,08,12,01,24,18.30
2021,08,12,01,25,18.30
2021,08,12,01,26,18.20
2021,08,12,01,27,18.20
2021,08,12,01,28,18.20
2021,08,12,01,29,18.10
2021,08,12,01,30,18.10
2021,08,12,01,31,18.10
2021,08,12,01,32,18.10
2021,08,12,01,33,18.10
2021,08,12,01,34,18.10
2021,08,12,01,35,18.10
2021,08,12,01,36,18.10
2021,08,12,01,37,18.10
2021,08,12,01,38,18.00
2021,08,12,01,39,18.00
2021,08,12,01,40,18.00
2021,08,12,01,41,17.90
2021,08,12,01,42,17.90
2021,08,12,01,43,17.90
2021,08,12,01,44,17.90
2021,08,12,01,45,17.90
2021,08,12,01,46,17.90
2021,08,12,01,47,17.90
2021,08,12,01,48,17.90
2021,08,12,01,49,17.90
2021,08,12,01,50,17.90
2021,08,12,01,51,17.90
2021,08,12,01,52,17.90
2021,08,12,01,53,18.00
2021,08,12,01,54,17.90
2021,08,12,01,55,17.90
2021,08,12,01,56,17.90
2021,08,12,01,57,18.00
2021,08,12,01,58,18.00
2021,08,12,01,59,18.00
2021,08,12,02,00,18.00
2021,08,12,02,01,18.10
2021,08,12,02,02,18.10
2021,08,12,02,03,18.10
2021,08,12,02,04,18.10
2021,08,12,02,05,18.10
2021,08,12,02,06,18.10
2021,08,12,02,07,18.10
2021,08,12,02,08,18.10
2021,08,12,02,09,18.10
2021,08,12,02,10,18.10
2021,08,12,02,11,18.00
2021,08,12,02,12,18.00
2021,08,12,02,13,17.90
2021,08,12,02,14,17.90
2021,08,12,02,15,17.90
2021,08,12,02,16,17.90
2021,08,12,02,17,17.90
2021,08,12,02,18,17.90
2021,08,12,02,19,17.90
2021,08,12,02,20,17.90
2021,08,12,02,21,17.90
2021,08,12,02,22,17.90
2021,08,12,02,23,17.90
2021,08,12,02,24,17.90
2021,08,12,02,25,17.90
2021,08,12,02,26,17.80
2021,08,12,02,27,17.80
2021,08,12,02,28,17.80
2021,08,12,02,29,17.80
2021,08,12,02,30,17.80
2021,08,12,02,31,17.80
2021,08,12,02,32,17.80
2021,08,12,02,33,17.70
2021,08,12,02,34,17.70
2021,08,12,02,35,17.70
2021,08,12,02,36,17.80
2021,08,12,02,37,17.70
2021,08,12,02,38,17.80
2021,08,12,02,39,17.80
2021,08,12,02,40,17.80
2021,08,12,02,41,17.80
2021,08,12,02,42,17.70
2021,08,12,02,43,17.70
2021,08,12,02,44,17.80
2021,08,12,02,45,17.80
2021,08,12,02,46,17.70
2021,08,12,02,47,17.70
2021,08,12,02,48,17.70
2021,08,12,02,49,17.70
2021,08,12,02,50,17.70
2021,08,12,02,51,17.60
2021,08,12,02,52,17.60
2021,08,12,02,53,17.60
2021,08,12,02,54,17.60
2021,08,12,02,55,17.60
2021,08,12,02,56,17.60
2021,08,12,02,57,17.60
2021,08,12,02,58,17.60
2021,08,12,02,59,17.60
2021,08,12,03,00,17.60
2021,08,12,03,01,17.60
2021,08,12,03,02,17.60
2021,08,12,03,03,17.50
2021,08,12,03,04,17.50
2021,08,12,03,05,17.50
2021,08,12,03,06,17.50
2021,08,12,03,07,17.50
2021,08,12,03,08,17.50
2021,08,12,03,09,17.50
2021,08,12,03,10,17.50
2021,08,12,03,11,17.40
2021,08,12,03,12,17.40
2021,08,12,03,13,17.40
2021,08,12,03,14,17.40
2021,08,12,03,15,17.40
2021,08,12,03,16,17.30
2021,08,12,03,17,17.30
2021,08,12,03,18,17.30
2021,08,12,03,19,17.30
2021,08,12,03,20,17.30
2021,08,12,03,21,17.30
2021,08,12,03,22,17.30
2021,08,12,03,23,17.30
2021,08,12,03,24,17.30
2021,08,12,03,25,17.20
2021,08,12,03,26,17.20
2021,08,12,03,27,17.20
2021,08,12,03,28,17.20
2021,08,12,03,29,17.20
2021,08,12,03,30,17.10
2021,08,12,03,31,17.10
2021,08,12,03,32,17.10
2021,08,12,03,33,17.10
2021,08,12,03,34,17.10
2021,08,12,03,35,17.10
2021,08,12,03,36,17.10
2021,08,12,03,37,17.10
2021,08,12,03,38,17.10
2021,08,12,03,39,17.10
2021,08,12,03,40,17.00
2021,08,12,03,41,17.00
2021,08,12,03,42,17.00
2021,08,12,03,43,17.00
2021,08,12,03,44,17.00
2021,08,12,03,45,17.00
2021,08,12,03,46,17.00
2021,08,12,03,47,17.00
2021,08,12,03,48,16.90
2021,08,12,03,49,16.90
2021,08,12,03,50,16.90
2021,08,12,03,51,16.90
2021,08,12,03,52,16.90
2021,08,12,03,53,16.90
2021,08,12,03,54,16.90
2021,08,12,03,55,16.90
2021,08,12,03,56,16.90
2021,08,12,03,57,16.90
2021,08,12,03,58,16.90
2021,08,12,03,59,16.90
2021,08,12,04,00,16.90
2021,08,12,04,01,16.90
2021,08,12,04,02,16.90
2021,08,12,04,03,16.90
2021,08,12,04,04,16.80
2021,08,12,04,05,16.80
2021,08,12,04,06,16.80
2021,08,12,04,07,16.80
2021,08,12,04,08,16.80
2021,08,12,04,09,16.80
2021,08,12,04,10,16.80
2021,08,12,04,11,16.70
2021,08,12,04,12,16.70
2021,08,12,04,13,16.70
2021,08,12,04,14,16.70
2021,08,12,04,15,16.70
2021,08,12,04,16,16.70
2021,08,12,04,17,16.70
2021,08,12,04,18,16.70
2021,08,12,04,19,16.70
2021,08,12,04,20,16.70
2021,08,12,04,21,16.70
2021,08,12,04,22,16.70
2021,08,12,04,23,16.70
2021,08,12,04,24,16.60
2021,08,12,04,25,16.60
2021,08,12,04,26,16.60
2021,08,12,04,27,16.60
2021,08,12,04,28,16.60
2021,08,12,04,29,16.60
2021,08,12,04,30,16.60
2021,08,12,04,31,16.60
2021,08,12,04,32,16.50
2021,08,12,04,33,16.50
2021,08,12,04,34,16.50
2021,08,12,04,35,16.50
2021,08,12,04,36,16.50
2021,08,12,04,37,16.50
2021,08,12,04,38,16.50
2021,08,12,04,39,16.50
2021,08,12,04,40,16.50
2021,08,12,04,41,16.50
2021,08,12,04,42,16.50
2021,08,12,04,43,16.50
2021,08,12,04,44,16.50
2021,08,12,04,45,16.50
2021,08,12,04,46,16.40
2021,08,12,04,47,16.50
2021,08,12,04,48,16.40
2021,08,12,04,49,16.40
2021,08,12,04,50,16.40
2021,08,12,04,51,16.40
2021,08,12,04,52,16.40
2021,08,12,04,53,16.40
2021,08,12,04,54,16.40
2021,08,12,04,55,16.40
2021,08,12,04,56,16.40
2021,08,12,04,57,16.40
2021,08,12,04,58,16.40
2021,08,12,04,59,16.40
2021,08,12,05,00,16.40
2021,08,12,05,01,16.40
2021,08,12,05,02,16.30
2021,08,12,05,03,16.30
2021,08,12,05,04,16.30
2021,08,12,05,05,16.30
2021,08,12,05,06,16.30
2021,08,12,05,07,16.30
2021,08,12,05,08,16.30
2021,08,12,05,09,16.30
2021,08,12,05,10,16.30
2021,08,12,05,11,16.30
2021,08,12,05,12,16.20
2021,08,12,05,13,16.20
2021,08,12,05,14,16.20
2021,08,12,05,15,16.20
2021,08,12,05,16,16.20
2021,08,12,05,17,16.20
2021,08,12,05,18,16.20
2021,08,12,05,19,16.20
2021,08,12,05,20,16.10
2021,08,12,05,21,16.10
2021,08,12,05,22,16.10
2021,08,12,05,23,16.10
2021,08,12,05,24,16.10
2021,08,12,05,25,16.10
2021,08,12,05,26,16.10
2021,08,12,05,27,16.10
2021,08,12,05,28,16.10
2021,08,12,05,29,16.10
2021,08,12,05,30,16.10
2021,08,12,05,31,16.10
2021,08,12,05,32,16.10
2021,08,12,05,33,16.10
2021,08,12,05,34,16.10
2021,08,12,05,35,16.10
2021,08,12,05,36,16.10
2021,08,12,05,37,16.10
2021,08,12,05,38,16.10
2021,08,12,05,39,16.10
2021,08,12,05,40,16.10
2021,08,12,05,41,16.10
2021,08,12,05,42,16.00
2021,08,12,05,43,16.00
2021,08,12,05,44,16.00
2021,08,12,05,45,16.00
2021,08,12,05,46,16.00
2021,08,12,05,47,16.00
2021,08,12,05,48,15.90
2021,08,12,05,49,15.90
2021,08,12,05,50,15.90
2021,08,12,05,51,15.90
2021,08,12,05,52,15.90
2021,08,12,05,53,15.90
2021,08,12,05,54,15.90
2021,08,12,05,55,15.90
2021,08,12,05,56,15.90
2021,08,12,05,57,15.90
2021,08,12,05,58,15.90
2021,08,12,05,59,15.90
2021,08,12,06,00,15.90
2021,08,12,06,01,15.90
2021,08,12,06,02,15.90
2021,08,12,06,03,15.90
2021,08,12,06,04,15.90
2021,08,12,06,05,15.90
2021,08,12,06,06,15.90
2021,08,12,06,07,15.90
2021,08,12,06,08,15.90
2021,08,12,06,09,15.90
2021,08,12,06,10,15.90
2021,08,12,06,11,15.90
2021,08,12,06,12,15.90
2021,08,12,06,13,15.90
2021,08,12,06,14,15.90
2021,08,12,06,15,15.90
2021,08,12,06,16,15.80
2021,08,12,06,17,15.80
2021,08,12,06,18,15.80
2021,08,12,06,19,15.80
2021,08,12,06,20,15.80
2021,08,12,06,21,15.80
2021,08,12,06,22,15.80
2021,08,12,06,23,15.70
2021,08,12,06,24,15.80
2021,08,12,06,25,15.80
2021,08,12,06,26,15.80
2021,08,12,06,27,15.80
2021,08,12,06,28,15.80
2021,08,12,06,29,15.80
2021,08,12,06,30,15.80
2021,08,12,06,31,15.80
2021,08,12,06,32,15.80
2021,08,12,06,33,15.90
2021,08,12,06,34,15.90
2021,08,12,06,35,15.90
2021,08,12,06,36,16.00
2021,08,12,06,37,16.00
2021,08,12,06,38,16.10
2021,08,12,06,39,16.10
2021,08,12,06,40,16.10
2021,08,12,06,41,16.10
2021,08,12,06,42,16.10
2021,08,12,06,43,16.20
2021,08,12,06,44,16.20
2021,08,12,06,45,16.20
2021,08,12,06,46,16.30
2021,08,12,06,47,16.30
2021,08,12,06,48,16.30
2021,08,12,06,49,16.30
2021,08,12,06,50,16.30
2021,08,12,06,51,16.30
2021,08,12,06,52,16.40
2021,08,12,06,53,16.40
2021,08,12,06,54,16.40
2021,08,12,06,55,16.50
2021,08,12,06,56,16.50
2021,08,12,06,57,16.50
2021,08,12,06,58,16.60
2021,08,12,06,59,16.60
2021,08,12,07,00,16.60
2021,08,12,07,01,16.70
2021,08,12,07,02,16.70
2021,08,12,07,03,16.70
2021,08,12,07,04,16.80
2021,08,12,07,05,16.80
2021,08,12,07,06,16.80
2021,08,12,07,07,16.90
2021,08,12,07,08,16.80
2021,08,12,07,09,16.90
2021,08,12,07,10,16.90
2021,08,12,07,11,16.90
2021,08,12,07,12,16.90
2021,08,12,07,13,17.00
2021,08,12,07,14,17.00
2021,08,12,07,15,17.00
2021,08,12,07,16,17.10
2021,08,12,07,17,17.10
2021,08,12,07,18,17.10
2021,08,12,07,19,17.10
2021,08,12,07,20,17.10
2021,08,12,07,21,17.10
2021,08,12,07,22,17.10
2021,08,12,07,23,17.20
2021,08,12,07,24,17.30
2021,08,12,07,25,17.30
2021,08,12,07,26,17.40
2021,08,12,07,27,17.40
2021,08,12,07,28,17.40
2021,08,12,07,29,17.50
2021,08,12,07,30,17.50
2021,08,12,07,31,17.60
2021,08,12,07,32,17.60
2021,08,12,07,33,17.60
2021,08,12,07,34,17.70
2021,08,12,07,35,17.70
2021,08,12,07,36,17.80
2021,08,12,07,37,17.80
2021,08,12,07,38,17.80
2021,08,12,07,39,17.90
2021,08,12,07,40,17.90
2021,08,12,07,41,17.90
2021,08,12,07,42,18.00
2021,08,12,07,43,18.00
2021,08,12,07,44,18.00
2021,08,12,07,45,18.00
2021,08,12,07,46,18.00
2021,08,12,07,47,18.00
2021,08,12,07,48,18.10
2021,08,12,07,49,18.10
2021,08,12,07,50,18.10
2021,08,12,07,51,18.10
2021,08,12,07,52,18.10
2021,08,12,07,53,18.20
2021,08,12,07,54,18.20
2021,08,12,07,55,18.20
2021,08,12,07,56,18.20
2021,08,12,07,57,18.20
2021,08,12,07,58,18.20
2021,08,12,07,59,18.30
2021,08,12,08,00,18.30
2021,08,12,08,01,18.40
2021,08,12,08,02,18.40
2021,08,12,08,03,18.40
2021,08,12,08,04,18.40
2021,08,12,08,05,18.40
2021,08,12,08,06,18.50
2021,08,12,08,07,18.50
2021,08,12,08,08,18.60
2021,08,12,08,09,18.70
2021,08,12,08,10,18.70
2021,08,12,08,11,18.80
2021,08,12,08,12,18.90
2021,08,12,08,13,18.90
2021,08,12,08,14,19.00
2021,08,12,08,15,19.00
2021,08,12,08,16,19.10
2021,08,12,08,17,19.10
2021,08,12,08,18,19.20
2021,08,12,08,19,19.30
2021,08,12,08,20,19.40
2021,08,12,08,21,19.50
2021,08,12,08,22,19.60
2021,08,12,08,23,19.80
2021,08,12,08,24,19.90
2021,08,12,08,25,20.00
2021,08,12,08,26,20.20
2021,08,12,08,27,20.30
2021,08,12,08,28,20.40
2021,08,12,08,29,20.50
2021,08,12,08,30,20.60
2021,08,12,08,31,20.70
2021,08,12,08,32,20.90
2021,08,12,08,33,21.00
2021,08,12,08,34,21.20
2021,08,12,08,35,21.40
2021,08,12,08,36,21.50
2021,08,12,08,37,21.60
2021,08,12,08,38,21.70
2021,08,12,08,39,21.90
2021,08,12,08,40,22.00
2021,08,12,08,41,22.10
2021,08,12,08,42,22.20
2021,08,12,08,43,22.40
2021,08,12,08,44,22.40
2021,08,12,08,45,22.60
2021,08,12,08,46,22.70
2021,08,12,08,47,22.80
2021,08,12,08,48,22.80
2021,08,12,08,49,22.80
2021,08,12,08,50,22.90
2021,08,12,08,51,22.90
2021,08,12,08,52,22.90
2021,08,12,08,53,22.90
2021,08,12,08,54,22.90
2021,08,12,08,55,22.90
2021,08,12,08,56,22.90
2021,08,12,08,57,22.90
2021,08,12,08,58,22.90
2021,08,12,08,59,22.90
2021,08,12,09,00,23.00
2021,08,12,09,01,23.00
2021,08,12,09,02,23.10
2021,08,12,09,03,23.10
2021,08,12,09,04,23.20
2021,08,12,09,05,23.20
2021,08,12,09,06,23.20
2021,08,12,09,07,23.30
2021,08,12,09,08,23.30
2021,08,12,09,09,23.40
2021,08,12,09,10,23.40
2021,08,12,09,11,23.40
2021,08,12,09,12,23.50
2021,08,12,09,13,23.60
2021,08,12,09,14,23.60
2021,08,12,09,15,23.60
2021,08,12,09,16,23.60
2021,08,12,09,17,23.60
2021,08,12,09,18,23.60
2021,08,12,09,19,23.60
2021,08,12,09,20,23.60
2021,08,12,09,21,23.70
2021,08,12,09,22,23.70
2021,08,12,09,23,23.80
2021,08,12,09,24,23.80
2021,08,12,09,25,23.80
2021,08,12,09,26,23.90
2021,08,12,09,27,24.00
2021,08,12,09,28,24.10
2021,08,12,09,29,24.10
2021,08,12,09,30,24.20
2021,08,12,09,31,24.20
2021,08,12,09,32,24.20
2021,08,12,09,33,24.20
2021,08,12,09,34,24.30
2021,08,12,09,35,24.30
2021,08,12,09,36,24.40
2021,08,12,09,37,24.40
2021,08,12,09,38,24.40
2021,08,12,09,39,24.30
2021,08,12,09,40,24.30
2021,08,12,09,41,24.30
2021,08,12,09,42,24.30
2021,08,12,09,43,24.20
2021,08,12,09,44,24.20
2021,08,12,09,45,24.20
2021,08,12,09,46,24.20
2021,08,12,09,47,24.10
2021,08,12,09,48,24.10
2021,08,12,09,49,24.00
2021,08,12,09,50,24.00
2021,08,12,09,51,24.00
2021,08,12,09,52,24.10
2021,08,12,09,53,24.20
2021,08,12,09,54,24.20
2021,08,12,09,55,24.30
2021,08,12,09,56,24.30
2021,08,12,09,57,24.40
2021,08,12,09,58,24.40
2021,08,12,09,59,24.40
2021,08,12,10,00,24.50
2021,08,12,10,01,24.60
2021,08,12,10,02,24.80
2021,08,12,10,03,24.90
2021,08,12,10,04,25.10
2021,08,12,10,05,25.30
2021,08,12,10,06,25.30
2021,08,12,10,07,25.40
2021,08,12,10,08,25.40
2021,08,12,10,09,25.40
2021,08,12,10,10,25.40
2021,08,12,10,11,25.40
2021,08,12,10,12,25.40
2021,08,12,10,13,25.40
2021,08,12,10,14,25.50
2021,08,12,10,15,25.50
2021,08,12,10,16,25.60
2021,08,12,10,17,25.70
2021,08,12,10,18,25.70
2021,08,12,10,19,25.60
2021,08,12,10,20,25.60
2021,08,12,10,21,25.60
2021,08,12,10,22,25.50
2021,08,12,10,23,25.50
2021,08,12,10,24,25.40
2021,08,12,10,25,25.30
2021,08,12,10,26,25.30
2021,08,12,10,27,25.30
2021,08,12,10,28,25.40
2021,08,12,10,29,25.40
2021,08,12,10,30,25.40
2021,08,12,10,31,25.40
2021,08,12,10,32,25.40
2021,08,12,10,33,25.40
2021,08,12,10,34,25.30
2021,08,12,10,35,25.30
2021,08,12,10,36,25.30
2021,08,12,10,37,25.30
2021,08,12,10,38,25.30
2021,08,12,10,39,25.40
2021,08,12,10,40,25.40
2021,08,12,10,41,25.50
2021,08,12,10,42,25.60
2021,08,12,10,43,25.70
2021,08,12,10,44,25.70
2021,08,12,10,45,25.70
2021,08,12,10,46,25.70
2021,08,12,10,47,25.70
2021,08,12,10,48,25.80
2021,08,12,10,49,25.90
2021,08,12,10,50,25.80
2021,08,12,10,51,25.80
2021,08,12,10,52,25.80
2021,08,12,10,53,25.90
2021,08,12,10,54,26.00
2021,08,12,10,55,26.00
2021,08,12,10,56,26.00
2021,08,12,10,57,26.00
2021,08,12,10,58,25.90
2021,08,12,10,59,25.80
2021,08,12,11,00,25.80
2021,08,12,11,01,25.80
2021,08,12,11,02,25.90
2021,08,12,11,03,25.90
2021,08,12,11,04,26.00
2021,08,12,11,05,26.00
2021,08,12,11,06,26.00
2021,08,12,11,07,26.00
2021,08,12,11,08,26.00
2021,08,12,11,09,26.00
2021,08,12,11,10,26.10
2021,08,12,11,11,26.10
2021,08,12,11,12,26.00
2021,08,12,11,13,26.00
2021,08,12,11,14,26.00
2021,08,12,11,15,25.90
2021,08,12,11,16,25.90
2021,08,12,11,17,25.90
2021,08,12,11,18,25.80
2021,08,12,11,19,25.80
2021,08,12,11,20,25.80
2021,08,12,11,21,25.80
2021,08,12,11,22,25.80
2021,08,12,11,23,25.80
2021,08,12,11,24,25.80
2021,08,12,11,25,25.80
2021,08,12,11,26,25.90
2021,08,12,11,27,25.90
2021,08,12,11,28,26.00
2021,08,12,11,29,26.10
2021,08,12,11,30,26.10
2021,08,12,11,31,26.10
2021,08,12,11,32,26.20
2021,08,12,11,33,26.30
2021,08,12,11,34,26.40
2021,08,12,11,35,26.50
2021,08,12,11,36,26.50
2021,08,12,11,37,26.60
2021,08,12,11,38,26.70
2021,08,12,11,39,26.80
2021,08,12,11,40,26.80
2021,08,12,11,41,26.80
2021,08,12,11,42,26.90
2021,08,12,11,43,27.00
2021,08,12,11,44,27.00
2021,08,12,11,45,27.10
2021,08,12,11,46,27.10
2021,08,12,11,47,27.20
2021,08,12,11,48,27.30
2021,08,12,11,49,27.40
2021,08,12,11,50,27.60
2021,08,12,11,51,27.70
2021,08,12,11,52,27.90
2021,08,12,11,53,28.00
2021,08,12,11,54,28.10
2021,08,12,11,55,28.10
2021,08,12,11,56,28.10
2021,08,12,11,57,28.10
2021,08,12,11,58,28.10
2021,08,12,11,59,28.10
2021,08,12,12,00,28.20
2021,08,12,12,01,28.30
2021,08,12,12,02,28.30
2021,08,12,12,03,28.20
2021,08,12,12,04,28.20
2021,08,12,12,05,28.20
2021,08,12,12,06,28.20
2021,08,12,12,07,28.30
2021,08,12,12,08,28.30
2021,08,12,12,09,28.40
2021,08,12,12,10,28.50
2021,08,12,12,11,28.60
2021,08,12,12,12,28.70
2021,08,12,12,13,28.70
2021,08,12,12,14,28.70
2021,08,12,12,15,28.70
2021,08,12,12,16,28.80
2021,08,12,12,17,28.80
2021,08,12,12,18,28.90
2021,08,12,12,19,29.00
2021,08,12,12,20,29.10
2021,08,12,12,21,29.20
2021,08,12,12,22,29.30
2021,08,12,12,23,29.30
2021,08,12,12,24,29.40
2021,08,12,12,25,29.30
2021,08,12,12,26,29.20
2021,08,12,12,27,29.20
2021,08,12,12,28,29.20
2021,08,12,12,29,29.30
2021,08,12,12,30,29.40
2021,08,12,12,31,29.50
2021,08,12,12,32,29.60
2021,08,12,12,33,29.60
2021,08,12,12,34,29.50
2021,08,12,12,35,29.40
2021,08,12,12,36,29.40
2021,08,12,12,37,29.30
2021,08,12,12,38,29.20
2021,08,12,12,39,29.20
2021,08,12,12,40,29.20
2021,08,12,12,41,29.20
2021,08,12,12,42,29.30
2021,08,12,12,43,29.40
2021,08,12,12,44,29.50
2021,08,12,12,45,29.50
2021,08,12,12,46,29.50
2021,08,12,12,47,29.50
2021,08,12,12,48,29.50
2021,08,12,12,49,29.60
2021,08,12,12,50,29.70
2021,08,12,12,51,29.70
2021,08,12,12,52,29.80
2021,08,12,12,53,29.80
2021,08,12,12,54,29.70
2021,08,12,12,55,29.60
2021,08,12,12,56,29.60
2021,08,12,12,57,29.60
2021,08,12,12,58,29.70
2021,08,12,12,59,29.70
2021,08,12,13,00,29.80
2021,08,12,13,01,29.80
2021,08,12,13,02,29.90
2021,08,12,13,03,29.90
2021,08,12,13,04,29.80
2021,08,12,13,05,29.80
2021,08,12,13,06,29.70
2021,08,12,13,07,29.70
2021,08,12,13,08,29.70
2021,08,12,13,09,29.80
2021,08,12,13,10,29.80
2021,08,12,13,11,29.80
2021,08,12,13,12,29.80
2021,08,12,13,13,29.90
2021,08,12,13,14,29.90
2021,08,12,13,15,30.00
2021,08,12,13,16,30.00
2021,08,12,13,17,30.10
2021,08,12,13,18,30.20
2021,08,12,13,19,30.20
2021,08,12,13,20,30.20
2021,08,12,13,21,30.30
2021,08,12,13,22,30.30
2021,08,12,13,23,30.20
2021,08,12,13,24,30.30
2021,08,12,13,25,30.20
2021,08,12,13,26,30.30
2021,08,12,13,27,30.30
2021,08,12,13,28,30.40
2021,08,12,13,29,30.50
2021,08,12,13,30,30.60
2021,08,12,13,31,30.60
2021,08,12,13,32,30.50
2021,08,12,13,33,30.40
2021,08,12,13,34,30.30
2021,08,12,13,35,30.20
2021,08,12,13,36,30.10
2021,08,12,13,37,30.10
2021,08,12,13,38,30.10
2021,08,12,13,39,30.10
2021,08,12,13,40,30.10
2021,08,12,13,41,30.10
2021,08,12,13,42,30.30
2021,08,12,13,43,30.30
2021,08,12,13,44,30.50
2021,08,12,13,45,30.50
2021,08,12,13,46,30.60
2021,08,12,13,47,30.70
2021,08,12,13,48,30.60
2021,08,12,13,49,30.60
2021,08,12,13,50,30.50
2021,08,12,13,51,30.40
2021,08,12,13,52,30.40
2021,08,12,13,53,30.40
2021,08,12,13,54,30.30
2021,08,12,13,55,30.30
2021,08,12,13,56,30.30
2021,08,12,13,57,30.20
2021,08,12,13,58,30.30
2021,08,12,13,59,30.30
2021,08,12,14,00,30.30
2021,08,12,14,01,30.30
2021,08,12,14,02,30.30
2021,08,12,14,03,30.30
2021,08,12,14,04,30.40
2021,08,12,14,05,30.60
2021,08,12,14,06,30.70
2021,08,12,14,07,30.70
2021,08,12,14,08,30.90
2021,08,12,14,09,31.00
2021,08,12,14,10,31.00
2021,08,12,14,11,31.00
2021,08,12,14,12,31.00
2021,08,12,14,13,31.10
2021,08,12,14,14,31.20
2021,08,12,14,15,31.20
2021,08,12,14,16,31.20
2021,08,12,14,17,31.10
2021,08,12,14,18,31.00
2021,08,12,14,19,31.00
2021,08,12,14,20,31.00
2021,08,12,14,21,31.00
2021,08,12,14,22,31.00
2021,08,12,14,23,31.10
2021,08,12,14,24,31.10
2021,08,12,14,25,31.20
2021,08,12,14,26,31.20
2021,08,12,14,27,31.30
2021,08,12,14,28,31.40
2021,08,12,14,29,31.40
2021,08,12,14,30,31.50
2021,08,12,14,31,31.50
2021,08,12,14,32,31.60
2021,08,12,14,33,31.70
2021,08,12,14,34,31.90
2021,08,12,14,35,32.10
2021,08,12,14,36,32.20
2021,08,12,14,37,32.30
2021,08,12,14,38,32.40
2021,08,12,14,39,32.50
2021,08,12,14,40,32.60
2021,08,12,14,41,32.60
2021,08,12,14,42,32.60
2021,08,12,14,43,32.50
2021,08,12,14,44,32.40
2021,08,12,14,45,32.30
2021,08,12,14,46,32.20
2021,08,12,14,47,32.20
2021,08,12,14,48,32.20
2021,08,12,14,49,32.20
2021,08,12,14,50,32.30
2021,08,12,14,51,32.30
2021,08,12,14,52,32.30
2021,08,12,14,53,32.30
2021,08,12,14,54,32.20
2021,08,12,14,55,32.10
2021,08,12,14,56,32.00
2021,08,12,14,57,32.00
2021,08,12,14,58,32.00
2021,08,12,14,59,32.00
2021,08,12,15,00,32.10
2021,08,12,15,01,32.10
2021,08,12,15,02,32.10
2021,08,12,15,03,32.10
2021,08,12,15,04,32.10
2021,08,12,15,05,32.00
2021,08,12,15,06,32.10
2021,08,12,15,07,32.10
2021,08,12,15,08,32.10
2021,08,12,15,09,32.10
2021,08,12,15,10,32.00
2021,08,12,15,11,32.00
2021,08,12,15,12,32.00
2021,08,12,15,13,32.00
2021,08,12,15,14,32.10
2021,08,12,15,15,32.10
2021,08,12,15,16,32.20
2021,08,12,15,17,32.30
2021,08,12,15,18,32.50
2021,08,12,15,19,32.60
2021,08,12,15,20,32.70
2021,08,12,15,21,32.70
2021,08,12,15,22,32.70
2021,08,12,15,23,32.80
2021,08,12,15,24,32.80
2021,08,12,15,25,32.90
2021,08,12,15,26,32.90
2021,08,12,15,27,32.90
2021,08,12,15,28,33.00
2021,08,12,15,29,33.10
2021,08,12,15,30,33.10
2021,08,12,15,31,33.30
2021,08,12,15,32,33.40
2021,08,12,15,33,33.50
2021,08,12,15,34,33.60
2021,08,12,15,35,33.70
2021,08,12,15,36,33.80
2021,08,12,15,37,33.90
2021,08,12,15,38,33.90
2021,08,12,15,39,34.00
2021,08,12,15,40,34.10
2021,08,12,15,41,34.10
2021,08,12,15,42,34.10
2021,08,12,15,43,34.00
2021,08,12,15,44,33.90
2021,08,12,15,45,33.90
2021,08,12,15,46,33.80
2021,08,12,15,47,33.70
2021,08,12,15,48,33.70
2021,08,12,15,49,33.70
2021,08,12,15,50,33.70
2021,08,12,15,51,33.70
2021,08,12,15,52,33.70
2021,08,12,15,53,33.70
2021,08,12,15,54,33.80
2021,08,12,15,55,33.80
2021,08,12,15,56,33.80
2021,08,12,15,57,33.80
2021,08,12,15,58,33.80
2021,08,12,15,59,33.90
2021,08,12,16,00,33.90
2021,08,12,16,01,33.90
2021,08,12,16,02,33.90
2021,08,12,16,03,34.00
2021,08,12,16,04,34.10
2021,08,12,16,05,34.20
2021,08,12,16,06,34.40
2021,08,12,16,07,34.50
2021,08,12,16,08,34.60
2021,08,12,16,09,34.60
2021,08,12,16,10,34.60
2021,08,12,16,11,34.70
2021,08,12,16,12,34.70
2021,08,12,16,13,34.60
2021,08,12,16,14,34.50
2021,08,12,16,15,34.50
2021,08,12,16,16,34.50
2021,08,12,16,17,34.50
2021,08,12,16,18,34.60
2021,08,12,16,19,34.70
2021,08,12,16,20,34.70
2021,08,12,16,21,34.80
2021,08,12,16,22,34.80
2021,08,12,16,23,34.80
2021,08,12,16,24,34.80
2021,08,12,16,25,34.70
2021,08,12,16,26,34.60
2021,08,12,16,27,34.60
2021,08,12,16,28,34.60
2021,08,12,16,29,34.60
2021,08,12,16,30,34.60
2021,08,12,16,31,34.60
2021,08,12,16,32,34.60
2021,08,12,16,33,34.60
2021,08,12,16,34,34.60
2021,08,12,16,35,34.60
2021,08,12,16,36,34.70
2021,08,12,16,37,34.80
2021,08,12,16,38,34.90
2021,08,12,16,39,34.80
2021,08,12,16,40,34.80
2021,08,12,16,41,34.80
2021,08,12,16,42,34.70
2021,08,12,16,43,34.60
2021,08,12,16,44,34.70
2021,08,12,16,45,34.70
2021,08,12,16,46,34.80
2021,08,12,16,47,34.90
2021,08,12,16,48,34.90
2021,08,12,16,49,34.90
2021,08,12,16,50,35.00
2021,08,12,16,51,35.10
2021,08,12,16,52,35.20
2021,08,12,16,53,35.30
2021,08,12,16,54,35.30
2021,08,12,16,55,35.30
2021,08,12,16,56,35.40
2021,08,12,16,57,35.50
2021,08,12,16,58,35.50
2021,08,12,16,59,35.60
2021,08,12,17,00,35.70
2021,08,12,17,01,35.70
2021,08,12,17,02,35.70
2021,08,12,17,03,35.50
2021,08,12,17,04,35.40
2021,08,12,17,05,35.30
2021,08,12,17,06,35.30
2021,08,12,17,07,35.30
2021,08,12,17,08,35.30
2021,08,12,17,09,35.30
2021,08,12,17,10,35.30
2021,08,12,17,11,35.20
2021,08,12,17,12,35.20
2021,08,12,17,13,35.20
2021,08,12,17,14,35.30
2021,08,12,17,15,35.30
2021,08,12,17,16,35.30
2021,08,12,17,17,35.30
2021,08,12,17,18,35.30
2021,08,12,17,19,35.30